CZ-4 DEB, 26658

Orbit data source: Space-Track

CZ-4 DEB, 26658 is space debris in SSO originally from a launch on Thu, 14 Oct 1999 UTC launched from the Taiyaun Space Center, China (TSC). Debris objects in space refer to the collection of defunct objects orbiting the Earth. Examples of debris include non-operational satellites, rocket bodies, and fragments generated from explosions, collisions, or faulty payload assembly.

Loading next visibility...
Identifier
26658, 1999-057LQ
Orbit
SSO
Country
Flag of CNCN / PRC
Related business
Manufacturer
Unknown
Mission
Spacecraft
Bus & Motor
Unknown
Mass
Unknown
Launch date (UTC)
1999-10-14 (26 years ago)
Launch vehicle
Unknown
Launch site
Taiyaun Space Center, China (TSC)
Object type
Payload
Rocket body
Debris
Shape & HBR
Unknown shape, 0.1 m
Radar Cross Section
Small (<0.1 m²)

Expand to show TLE details & history
Last TLE update: 12 hours ago

TLE from 12 hours ago
0 CZ-4 DEB
1 26658U 99057LQ  26036.59867451  .00003013  00000-0  68197-3 0  9990
2 26658  98.5257  87.1888 0067116 126.5213  26.7936 14.55552202342032
Epoch: 2026-02-05T14:22Z
TLE epoch observation values (Epoch: 2026-02-05T14:22:05.477Z)
Latitude
26.05823°
Longitude
-79.90157°
Altitude
668.385 km
Speed
7.548 km/s
True Right ascension
18h 05m 28s
True Declination
25° 55' 16"
Sunlit
Object was in daylight at epoch
Visualization orbit readout
Latitude
Unknown
Longitude
Unknown
Altitude
Unknown
Speed
Unknown
Apparent Right ascension
Unknown
Apparent Declination
Unknown
Sunlit
N/A
Visualization observer readout
Local Sidereal Time
04:38:26
Azimuth
Unknown
Elevation
Unknown
Doppler factor
Unknown
Orbital elements
Apogee altitude
752.211 km
Perigee altitude
657.137 km
Semi-major axis
7,082.811 km
Eccentricity
0.00671
Inclination
98.5257°
RAAN
87.1888°
Arg. of periapsis
126.5213°
True anomaly
27.1429°
Mean anomaly
26.7936°
Eccentric anomaly
26.96799°
Mean motion
3.64112 °/min
Orbital period
98.87 mins
BSTAR
0.00068197
Loading maneuver chart data...
Computing Atmospheric mass density...
Loading historical data...
Loading historical data...
Loading historical data...
Loading historical data...
Loading historical data...
Loading historical data...
Loading historical data...

Documentation

Showing up to 5 results
|